Flag for U.S.A. Weather past 2 weeks in Roanoke, Virginia, U.S.A.

Now
63 °F

Clear.


Feels Like: 63 °F
Forecast: 62 / 90 °F
Wind: No wind

Location: Roanoke Regional Airport

Current Time: Aug 3, 2015 at 7:28:22 AM

Latest Report: Aug 3, 2015 at 6:54 AM


Visibility: 10 mi

Pressure: 29.93 "Hg

Humidity: 84%

Dew point: 58 °F

Location of RoanokeLocation

Historic Weather in Roanoke — Graph

°F

Roanoke temperature yesterday

Maximum temperature yesterday: 85 °F (at 4:54 PM)
Minimum temperature yesterday: 60 °F (at 5:54 AM)
Average temperature yesterday: 73 °F

Past Weeks' High & Low Weather Summary

 TemperatureHumidityPressure
High93 °F (Jul 30, 3:54 PM)97% (Jul 24, 6:54 AM)30.05 "Hg (Jul 24, 6:54 AM)
Low60 °F (Aug 2, 5:54 AM)29% (Aug 1, 3:54 PM)29.72 "Hg (Jul 21, 3:54 PM)
Average77 °F68%29.95 "Hg
* Reported Jul 19 5:54 AM — Aug 3 5:54 AM, Roanoke, Weather by CustomWeather, © 2015

Note: Actual official high and low records may vary slightly from our data, if they occured in-between our weather recording intervals... More about our weather records

Advertising

Roanoke weather history for previous 24 hours

 ConditionsComfort  
Time TempWeatherWind HumidityBarometerVisibility
5:54 AM
Mon, Aug 3
61 °FPassing clouds.No wind90%29.92 "Hg10 mi
4:54 AM63 °FClear.No wind84%29.93 "Hg10 mi
3:54 AM62 °FClear.5 mph86%29.94 "Hg10 mi
2:54 AM65 °FPassing clouds.8 mph81%29.95 "Hg10 mi
1:54 AM65 °FPassing clouds.3 mph81%29.95 "Hg10 mi
12:54 AM66 °FClear.No wind75%29.96 "Hg10 mi
11:54 PM
Sun, Aug 2
68 °FClear.3 mph70%29.96 "Hg10 mi
10:54 PM70 °FClear.5 mph71%29.96 "Hg10 mi
9:54 PM73 °FClear.6 mph59%29.97 "Hg10 mi
8:54 PM76 °FSunny.5 mph52%29.96 "Hg10 mi
7:54 PM80 °FScattered clouds.7 mph39%29.95 "Hg10 mi
6:54 PM83 °FScattered clouds.6 mph36%29.96 "Hg10 mi
5:54 PM85 °FBroken clouds.3 mph32%29.97 "Hg10 mi
4:54 PM85 °FBroken clouds.6 mph35%29.98 "Hg10 mi
3:54 PM82 °FBroken clouds.9 mph40%29.99 "Hg10 mi
2:54 PM82 °FBroken clouds.7 mph40%30.00 "Hg10 mi
1:54 PM80 °FBroken clouds.9 mph44%30.02 "Hg10 mi
12:54 PM82 °FBroken clouds.5 mph41%30.02 "Hg10 mi
11:54 AM81 °FPartly sunny.8 mph42%30.03 "Hg10 mi
10:54 AM76 °FPartly sunny.3 mph54%30.03 "Hg10 mi
9:54 AM75 °FScattered clouds.3 mph58%30.02 "Hg10 mi
8:54 AM71 °FScattered clouds.3 mph63%30.02 "Hg10 mi
7:54 AM65 °FScattered clouds.No wind76%30.00 "Hg10 mi
Weather by CustomWeather, © 2015

See weather overviewHow to use our weather pages